Overview Statistics Trail Chart Weather Telemetry Raw packets
 

This is the latest recevied weather packets stored in our database for station/object KB1YTR-1. If no packets are shown the sender has not sent any weather packets the latest 10 day(s).

<< 25 26 27 28 29 30 31 >>
Time Temp. Humidity Pressure Rain* Wind** Luminosity Snow
1788175354 17.22° C 99% 1008.8 hPa 0 mm - - -
1788174504 17.22° C 99% 1009 hPa 0 mm - - -
1788173674 17.22° C 99% 1008.7 hPa 0 mm - - -
1788172913 17.22° C 99% 1008.8 hPa 0 mm - - -
1788172084 17.22° C 99% 1008.9 hPa 6.6 mm - - -
1788171344 17.22° C 99% 1008.7 hPa 7.37 mm - - -
1788170504 17.22° C 99% 1008.9 hPa 7.37 mm - - -
1788169735 17.22° C 99% 1008.7 hPa 7.37 mm - - -
1788168964 17.78° C 99% 1008.7 hPa 3.3 mm - - -
1788168084 17.22° C 99% 1010.1 hPa 0 mm - - -
1788167319 17.22° C 99% 1009 hPa 0 mm - - -
1788166424 17.22° C 99% 1009.1 hPa 0 mm - - -
1788165594 17.22° C 99% 1008.8 hPa 0 mm - - -
1788164749 17.22° C 99% 1008.6 hPa 0 mm - - -
1788163894 16.67° C 99% 1008.8 hPa 0 mm - - -
1788163780 16.67° C 99% 1008.8 hPa 0 mm - - -
1788163050 16.67° C 99% 1009.1 hPa 0 mm - - -
1788162225 16.67° C 99% 1009.1 hPa 0 mm - - -
1788161460 16.67° C 99% 1009.3 hPa 0 mm - - -
1788160605 16.67° C 99% 1009.5 hPa 0 mm - - -
1788159741 16.67° C 99% 1009.5 hPa 0 mm - - -
1788158950 16.67° C 99% 1009.5 hPa 0 mm - - -
1788158125 16.67° C 99% 1009.5 hPa 0.76 mm - - -
1788157385 16.67° C 99% 1009.6 hPa 1.52 mm - - -
1788156546 17.22° C 99% 1010 hPa 2.03 mm - - -

* Rain latest hour (hover to see other rain measurements)
** Current wind speed in m/s (hover to see current wind gust speed)